Regional Weather Roundup
Issued by NWS

Home | Current Version | Previous Version | Text Only | Print | Product List | Glossary Off
Versions: 1 2 3 4 5 6 7 8 9 10 11 12 13 14 15 16 17 18 19 20 21 22 23 24 25 26 27 28 29 30 31 32 33 34 35 36 37 38 39 40 41 42 43 44 45 46 47 48 49 50

000
ASUS45 KABQ 221610
RWRNM
NEW MEXICO REGIONAL WEATHER ROUNDUP
NATIONAL WEATHER SERVICE ALBUQUERQUE NM
1000 AM MDT THU JUN 22 2017

NOTE: "FAIR" MEANS FEW OR NO CLOUDS BELOW 12,000 FEET AGL WITH NO
       SIGNIFICANT WEATHER OR OBSTRUCTIONS TO VISION.

      THIS PRODUCT IS RELEASED AS TWO VERSIONS.  ONE VERSION NEAR
      THE TOP OF THE HOUR CONTAINING PRELIMINARY DATA FROM ALBUQUERQUE
      AND OTHER STATIONS.  A FINAL VERSION WITH ADDITIONAL DATA IS
      ISSUED ABOUT 10 MINUTES AFTER THE HOUR.

NMZ501-503-504-510>518-221700-
NORTHWEST PLATEAU/NORTHCENTRAL MOUNTAINS

CITY           SKY/WX    TMP DP  RH WIND       PRES   REMARKS
FARMINGTON     FAIR      80  39  23 SE6       30.03F
LOS ALAMOS     FAIR      76  43  30 CALM      30.17F
SANTA FE       FAIR      82  45  27 VRB3      30.09F
TAOS           FAIR      75  43  31 NW3         N/A
ANGEL FIRE     FAIR      69  46  43 CALM      30.27F

$$
NMZ402-403-502-505>509-221700-
WESTCENTRAL MOUNTAINS/SOUTHWEST MOUNTAINS

CITY           SKY/WX    TMP DP  RH WIND       PRES   REMARKS
GALLUP         FAIR      84  31  14 VRB3      30.13S
GRANTS         FAIR      84  30  14 CALM      30.14S
SILVER CITY    FAIR      88  44  21 NW16      30.05S

$$
NMZ407-409-411-412-221700-
SOUTHERN DESERTS

CITY           SKY/WX    TMP DP  RH WIND       PRES   REMARKS
DEMING         FAIR      91  47  21 W8        29.96S
LAS CRUCES     FAIR      90  44  20 SW7       29.97F
HOLLOMAN AFB   FAIR      90  49  24 S6        29.95S
ALAMOGORDO     FAIR      90  45  20 CALM      29.95F
T OR C         FAIR      88  45  22 S9        29.98S

$$
NMZ519>523-221700-
CENTRAL VALLEYS/CENTRAL HIGHLANDS

CITY           SKY/WX    TMP DP  RH WIND       PRES   REMARKS
ALBUQUERQUE    FAIR      84  44  24 CALM      30.03S
DOUBLE EAGLE   SUNNY     82  46  28 VRB5      30.07S
MORIARTY ARPT  FAIR      80  46  29 CALM      30.10F
CLINES CORNERS FAIR      80  43  26 W14       30.15S
BELEN          FAIR      85  41  21 SW6       30.01F
SOCORRO        FAIR      85  44  23 SE12      29.99S

$$
NMZ524>526-539-540-221700-
SOUTHCENTRAL MOUNTAINS

CITY           SKY/WX    TMP DP  RH WIND       PRES   REMARKS
RUIDOSO        FAIR      81  45  28 NW10      30.15S

$$
NMZ527>531-221700-
NORTHEAST HIGHLANDS/NORTHEAST PLAINS

CITY           SKY/WX    TMP DP  RH WIND       PRES   REMARKS
LAS VEGAS      FAIR      82  43  25 NW5       30.10F
RATON          FAIR      75  51  43 NE8       30.04F
CLAYTON        FAIR      93  49  22 W15G23    29.88F

$$
NMZ532>537-221700-
EASTCENTRAL PLAINS

CITY           SKY/WX    TMP DP  RH WIND       PRES   REMARKS
TUCUMCARI      FAIR      85  58  39 W9        29.86F
CANNON AFB     FAIR      84  55  37 SW14      29.92S
CLOVIS AIRPORT NOT AVBL

$$
NMZ028-029-538-221700-
SOUTHEAST PLAINS

CITY           SKY/WX    TMP DP  RH WIND       PRES   REMARKS
ROSWELL        FAIR      89  53  29 CALM      29.86F
ARTESIA        FAIR      90  54  29 E5        29.86S
CARLSBAD       FAIR      85  61  44 VRB5      29.84F
HOBBS          SUNNY     84  52  32 VRB3      29.89F


$$




USA.gov is the U.S. government's official web portal to all federal, state and local government web resources and services.